Flag for Mauritania Weather past 2 weeks in Nouadhibou, Mauritania

Now
59 °F

Clear.


Feels Like: 56 °F
Forecast: 57 / 72 °F
Wind: 18 mph from North

Location: Nouadhibou Airport

Current Time: Feb 1, 2015 at 4:23:47 AM

Latest Report: Feb 1, 2015 at 4:00 AM


Visibility: 5 mi

Pressure: 30.04 "Hg

Humidity: 88%

Dew point: 55 °F

Location of NouadhibouLocation

Historic Weather in Nouadhibou — Graph

°F

Nouadhibou temperature yesterday

Maximum temperature yesterday: 73 °F (at 3:00 PM)
Minimum temperature yesterday: 57 °F (at 2:00 AM)
Average temperature yesterday: 63 °F

Past Weeks' High & Low Weather Summary

 TemperatureHumidityPressure
High81 °F (Jan 28, 5:00 PM)88% (Jan 31, 8:00 AM)30.24 "Hg (Jan 31, 8:00 AM)
Low54 °F (Jan 18, 7:00 AM)13% (Jan 28, 5:00 PM)29.98 "Hg (Jan 20, 4:00 PM)
Average64 °F59%30.10 "Hg
* Reported Jan 17 3:00 AM — Feb 1 3:00 AM, Nouadhibou, Weather by CustomWeather, © 2014

Note: Actual official high and low records may vary slightly from our data, if they occured in-between our weather recording intervals... More about our weather records

Advertising

Nouadhibou weather history for previous 24 hours

 ConditionsComfort  
Time TempWeatherWind HumidityBarometerVisibility
3:00 AM
Feb 1
61 °FClear.24 mph83%30.07 "Hg5 mi
2:00 AM61 °FClear.18 mph77%30.07 "Hg5 mi
1:00 AM61 °FClear.16 mph77%30.07 "Hg5 mi
12:00 AM61 °FClear.14 mph77%30.09 "Hg5 mi
11:00 PM
Jan 31
61 °FClear.14 mph77%30.09 "Hg5 mi
10:00 PM63 °FClear.14 mph73%30.09 "Hg5 mi
9:00 PM63 °FClear.14 mph77%30.07 "Hg5 mi
8:00 PM64 °FClear.12 mph78%30.04 "Hg5 mi
7:00 PM66 °FClear.12 mph68%30.04 "Hg5 mi
6:00 PM66 °FClear.18 mph73%30.04 "Hg5 mi
5:00 PM68 °FClear.18 mph64%30.04 "Hg5 mi
4:00 PM68 °FClear.14 mph64%30.04 "Hg5 mi
3:00 PM73 °FClear.12 mph47%30.07 "Hg5 mi
2:00 PM72 °FClear.14 mph53%30.07 "Hg5 mi
1:00 PM68 °FClear.18 mph64%30.09 "Hg5 mi
12:00 PM66 °FClear.18 mph68%30.15 "Hg5 mi
11:00 AM64 °FClear.20 mph73%30.15 "Hg5 mi
10:00 AM63 °FClear.23 mph77%30.15 "Hg5 mi
9:00 AM59 °FClear.18 mph82%30.15 "Hg5 mi
8:00 AM57 °FClear.16 mph88%30.12 "Hg5 mi
7:00 AM59 °FClear.18 mph82%30.09 "Hg5 mi
6:00 AM57 °FClear.17 mph82%30.09 "Hg5 mi
5:00 AM57 °FClear.16 mph82%30.09 "Hg5 mi
4:00 AM57 °FClear.16 mph82%30.09 "Hg5 mi
Weather by CustomWeather, © 2014

See weather overviewHow to use our weather pages